Time,TemperatureF,DewpointF,PressureIn,WindDirection,WindDirectionDegrees,WindSpeedMPH,WindSpeedGustMPH,Humidity,HourlyPrecipIn,Conditions,Clouds,dailyrainin,SoftwareType,DateUTC
2013-06-13 00:01:00,79.0,60.9,30.02,NW,315,2.5,6.9,54,0.00,,,0.00,WUHU216HW,2013-06-13 05:01:00,
2013-06-13 00:06:00,78.7,60.1,30.03,NW,315,3.4,6.3,53,0.00,,,0.00,WUHU216HW,2013-06-13 05:06:00,
2013-06-13 00:11:00,78.3,60.3,30.03,North,0,1.8,5.4,54,0.00,,,0.00,WUHU216HW,2013-06-13 05:11:00,
2013-06-13 00:16:00,78.1,60.1,30.03,North,0,3.6,4.9,54,0.00,,,0.00,WUHU216HW,2013-06-13 05:16:00,
2013-06-13 00:21:00,77.8,59.8,30.03,NNE,23,2.5,8.7,54,0.00,,,0.00,WUHU216HW,2013-06-13 05:21:00,
2013-06-13 00:26:00,77.2,59.2,30.04,North,0,4.3,8.7,54,0.00,,,0.00,WUHU216HW,2013-06-13 05:26:00,
2013-06-13 00:31:00,76.7,59.2,30.05,NNW,338,9.4,9.4,55,0.00,,,0.00,WUHU216HW,2013-06-13 05:31:00,
2013-06-13 00:36:00,76.0,58.6,30.05,North,0,3.4,10.5,55,0.00,,,0.00,WUHU216HW,2013-06-13 05:36:00,
2013-06-13 00:41:00,75.4,58.2,30.05,NE,45,2.0,11.0,55,0.00,,,0.00,WUHU216HW,2013-06-13 05:41:00,
2013-06-13 00:46:00,74.9,57.6,30.06,WNW,293,2.0,11.0,55,0.00,,,0.00,WUHU216HW,2013-06-13 05:46:00,
2013-06-13 00:51:00,74.5,57.2,30.06,NW,315,6.5,9.6,55,0.00,,,0.00,WUHU216HW,2013-06-13 05:51:00,
2013-06-13 00:56:00,74.2,57.4,30.06,NE,45,2.5,9.6,56,0.00,,,0.00,WUHU216HW,2013-06-13 05:56:00,
2013-06-13 01:01:00,74.0,57.3,30.06,NNW,338,2.9,8.5,56,0.00,,,0.00,WUHU216HW,2013-06-13 06:01:00,
2013-06-13 01:06:00,73.6,56.9,30.06,ESE,113,1.8,5.8,56,0.00,,,0.00,WUHU216HW,2013-06-13 06:06:00,
2013-06-13 01:11:00,73.3,56.5,30.06,NNE,23,3.4,6.0,56,0.00,,,0.00,WUHU216HW,2013-06-13 06:11:00,
2013-06-13 01:16:00,73.1,56.3,30.06,North,0,4.3,6.0,56,0.00,,,0.00,WUHU216HW,2013-06-13 06:16:00,
2013-06-13 01:21:00,72.9,56.2,30.06,NNW,338,2.5,8.7,56,0.00,,,0.00,WUHU216HW,2013-06-13 06:21:00,
2013-06-13 01:26:00,72.7,56.0,30.06,NNW,338,0.9,8.7,56,0.00,,,0.00,WUHU216HW,2013-06-13 06:26:00,
2013-06-13 01:31:00,72.5,55.9,30.06,North,0,1.6,5.4,56,0.00,,,0.00,WUHU216HW,2013-06-13 06:31:00,
2013-06-13 01:36:00,72.4,55.7,30.06,NNW,338,4.0,5.4,56,0.00,,,0.00,WUHU216HW,2013-06-13 06:36:00,
2013-06-13 01:41:00,72.2,55.5,30.07,North,0,3.4,6.7,56,0.00,,,0.00,WUHU216HW,2013-06-13 06:41:00,
2013-06-13 01:46:00,72.0,55.4,30.07,North,0,1.3,6.7,56,0.00,,,0.00,WUHU216HW,2013-06-13 06:46:00,
2013-06-13 01:51:00,71.6,55.5,30.07,NNW,338,6.0,7.2,57,0.00,,,0.00,WUHU216HW,2013-06-13 06:51:00,
2013-06-13 01:56:00,71.5,55.4,30.07,NNW,338,4.3,9.4,57,0.00,,,0.00,WUHU216HW,2013-06-13 06:56:00,
2013-06-13 02:01:00,71.3,55.3,30.07,NNW,338,1.8,9.4,57,0.00,,,0.00,WUHU216HW,2013-06-13 07:01:00,
2013-06-13 02:06:00,70.9,55.5,30.07,NNE,23,5.6,5.8,58,0.00,,,0.00,WUHU216HW,2013-06-13 07:06:00,
2013-06-13 02:11:00,70.9,55.5,30.08,NNE,23,2.9,5.8,58,0.00,,,0.00,WUHU216HW,2013-06-13 07:11:00,
2013-06-13 02:16:00,70.6,55.1,30.08,NNW,338,3.1,5.6,58,0.00,,,0.00,WUHU216HW,2013-06-13 07:16:00,
2013-06-13 02:21:00,70.4,54.9,30.08,North,0,2.0,5.1,58,0.00,,,0.00,WUHU216HW,2013-06-13 07:21:00,
2013-06-13 02:26:00,70.2,54.7,30.08,ENE,68,3.6,9.2,58,0.00,,,0.00,WUHU216HW,2013-06-13 07:26:00,
2013-06-13 02:31:00,70.0,54.6,30.08,NW,315,1.1,9.2,58,0.00,,,0.00,WUHU216HW,2013-06-13 07:31:00,
2013-06-13 02:36:00,69.8,54.9,30.08,WNW,293,1.8,6.9,59,0.00,,,0.00,WUHU216HW,2013-06-13 07:36:00,
2013-06-13 02:41:00,69.8,54.9,30.08,NNE,23,2.9,6.9,59,0.00,,,0.00,WUHU216HW,2013-06-13 07:41:00,
2013-06-13 02:46:00,69.5,55.1,30.08,North,0,2.7,5.4,60,0.00,,,0.00,WUHU216HW,2013-06-13 07:46:00,
2013-06-13 02:51:00,69.5,55.1,30.08,NNE,23,3.8,5.4,60,0.00,,,0.00,WUHU216HW,2013-06-13 07:51:00,
2013-06-13 02:56:00,69.3,54.9,30.08,North,0,1.1,4.0,60,0.00,,,0.00,WUHU216HW,2013-06-13 07:56:00,
2013-06-13 03:01:00,69.1,55.2,30.08,NNW,338,2.0,4.0,61,0.00,,,0.00,WUHU216HW,2013-06-13 08:01:00,
2013-06-13 03:06:00,68.9,55.0,30.09,NE,45,3.1,4.0,61,0.00,,,0.00,WUHU216HW,2013-06-13 08:06:00,
2013-06-13 03:11:00,68.8,54.8,30.09,NNW,338,1.8,5.8,61,0.00,,,0.00,WUHU216HW,2013-06-13 08:11:00,
2013-06-13 03:16:00,68.8,54.8,30.08,North,0,3.1,5.8,61,0.00,,,0.00,WUHU216HW,2013-06-13 08:16:00,
2013-06-13 03:22:00,68.4,54.9,30.09,NW,315,1.1,4.3,62,0.00,,,0.00,WUHU216HW,2013-06-13 08:22:00,
2013-06-13 03:27:00,68.4,54.9,30.09,North,0,2.5,4.3,62,0.00,,,0.00,WUHU216HW,2013-06-13 08:27:00,
2013-06-13 03:32:00,68.2,54.7,30.09,North,0,1.8,4.3,62,0.00,,,0.00,WUHU216HW,2013-06-13 08:32:00,
2013-06-13 03:37:00,68.0,54.6,30.09,NNE,23,2.9,4.0,62,0.00,,,0.00,WUHU216HW,2013-06-13 08:37:00,
2013-06-13 03:42:00,67.9,54.8,30.09,NNW,338,1.3,4.0,63,0.00,,,0.00,WUHU216HW,2013-06-13 08:42:00,
2013-06-13 03:47:00,67.9,54.8,30.09,NW,315,1.3,4.0,63,0.00,,,0.00,WUHU216HW,2013-06-13 08:47:00,
2013-06-13 03:52:00,67.7,54.6,30.09,NW,315,0.9,4.0,63,0.00,,,0.00,WUHU216HW,2013-06-13 08:52:00,
2013-06-13 03:57:00,67.7,54.6,30.09,NNW,338,1.1,5.6,63,0.00,,,0.00,WUHU216HW,2013-06-13 08:57:00,
2013-06-13 04:02:00,67.5,54.5,30.09,North,0,0.9,5.6,63,0.00,,,0.00,WUHU216HW,2013-06-13 09:02:00,
2013-06-13 04:07:00,67.3,54.3,30.09,North,0,1.1,3.4,63,0.00,,,0.00,WUHU216HW,2013-06-13 09:07:00,
2013-06-13 04:12:00,67.3,54.3,30.10,North,0,1.3,2.9,63,0.00,,,0.00,WUHU216HW,2013-06-13 09:12:00,
2013-06-13 04:17:00,67.1,54.1,30.09,ESE,113,1.1,4.7,63,0.00,,,0.00,WUHU216HW,2013-06-13 09:17:00,
2013-06-13 04:22:00,67.0,53.9,30.10,North,0,2.2,4.7,63,0.00,,,0.00,WUHU216HW,2013-06-13 09:22:00,
2013-06-13 04:27:00,67.0,53.9,30.10,NNW,338,2.0,5.4,63,0.00,,,0.00,WUHU216HW,2013-06-13 09:27:00,
2013-06-13 04:33:00,66.8,53.7,30.10,NNW,338,0.4,5.4,63,0.00,,,0.00,WUHU216HW,2013-06-13 09:33:00,
2013-06-13 04:38:00,66.8,53.7,30.10,NNW,338,1.8,2.0,63,0.00,,,0.00,WUHU216HW,2013-06-13 09:38:00,
2013-06-13 04:43:00,66.6,53.7,30.10,NNW,338,1.8,2.2,63,0.00,,,0.00,WUHU216HW,2013-06-13 09:43:00,
2013-06-13 04:48:00,66.6,53.7,30.10,NNE,23,0.9,3.1,63,0.00,,,0.00,WUHU216HW,2013-06-13 09:48:00,
2013-06-13 04:53:00,66.4,53.5,30.10,NE,45,3.8,3.8,63,0.00,,,0.00,WUHU216HW,2013-06-13 09:53:00,
2013-06-13 04:58:00,66.2,53.3,30.10,NNW,338,1.3,3.8,63,0.00,,,0.00,WUHU216HW,2013-06-13 09:58:00,
2013-06-13 05:03:00,66.1,53.1,30.10,North,0,1.8,3.8,63,0.00,,,0.00,WUHU216HW,2013-06-13 10:03:00,
2013-06-13 05:08:00,65.9,53.4,30.10,North,0,2.9,3.4,64,0.00,,,0.00,WUHU216HW,2013-06-13 10:08:00,
2013-06-13 05:13:00,65.9,53.4,30.10,North,0,2.0,4.0,64,0.00,,,0.00,WUHU216HW,2013-06-13 10:13:00,
2013-06-13 05:18:00,65.7,53.2,30.10,ENE,68,2.7,4.9,64,0.00,,,0.00,WUHU216HW,2013-06-13 10:18:00,
2013-06-13 05:23:00,65.5,53.0,30.10,NW,315,3.1,4.9,64,0.00,,,0.00,WUHU216HW,2013-06-13 10:23:00,
2013-06-13 05:28:00,65.5,53.0,30.10,North,0,1.1,3.4,64,0.00,,,0.00,WUHU216HW,2013-06-13 10:28:00,
2013-06-13 05:33:00,65.5,53.0,30.10,NNW,338,1.1,3.4,64,0.00,,,0.00,WUHU216HW,2013-06-13 10:33:00,
2013-06-13 05:38:00,65.3,53.3,30.11,NW,315,3.1,3.1,65,0.00,,,0.00,WUHU216HW,2013-06-13 10:38:00,
2013-06-13 05:43:00,65.3,53.3,30.11,North,0,1.1,4.0,65,0.00,,,0.00,WUHU216HW,2013-06-13 10:43:00,
2013-06-13 05:48:00,65.3,53.3,30.11,NNW,338,1.1,4.0,65,0.00,,,0.00,WUHU216HW,2013-06-13 10:48:00,
2013-06-13 05:53:00,65.2,53.1,30.11,ENE,68,1.1,3.1,65,0.00,,,0.00,WUHU216HW,2013-06-13 10:53:00,
2013-06-13 05:58:00,65.2,53.1,30.12,WNW,293,0.9,3.6,65,0.00,,,0.00,WUHU216HW,2013-06-13 10:58:00,
2013-06-13 06:03:00,65.0,52.9,30.12,NNW,338,0.7,3.6,65,0.00,,,0.00,WUHU216HW,2013-06-13 11:03:00,
2013-06-13 06:08:00,65.0,52.9,30.12,NNE,23,1.6,2.5,65,0.00,,,0.00,WUHU216HW,2013-06-13 11:08:00,
2013-06-13 06:13:00,64.8,52.8,30.12,North,0,0.0,4.5,65,0.00,,,0.00,WUHU216HW,2013-06-13 11:13:00,
2013-06-13 06:18:00,64.8,53.2,30.12,North,0,2.0,4.7,66,0.00,,,0.00,WUHU216HW,2013-06-13 11:18:00,
2013-06-13 06:23:00,64.8,53.2,30.12,NW,315,1.1,4.7,66,0.00,,,0.00,WUHU216HW,2013-06-13 11:23:00,
2013-06-13 06:28:00,64.8,53.2,30.12,WNW,293,0.0,2.7,66,0.00,,,0.00,WUHU216HW,2013-06-13 11:28:00,
2013-06-13 06:32:00,64.8,53.6,30.13,NNW,338,0.9,1.8,67,0.00,,,0.00,WUHU216HW,2013-06-13 11:32:00,
2013-06-13 06:37:00,64.8,53.6,30.13,NW,315,1.1,1.8,67,0.00,,,0.00,WUHU216HW,2013-06-13 11:37:00,
2013-06-13 06:42:00,64.6,53.4,30.13,North,0,0.4,1.8,67,0.00,,,0.00,WUHU216HW,2013-06-13 11:42:00,
2013-06-13 06:47:00,64.8,53.6,30.13,North,0,0.2,1.8,67,0.00,,,0.00,WUHU216HW,2013-06-13 11:47:00,
2013-06-13 06:52:00,64.8,53.6,30.13,North,0,1.3,1.8,67,0.00,,,0.00,WUHU216HW,2013-06-13 11:52:00,
2013-06-13 06:57:00,64.8,54.0,30.13,NNW,338,0.4,1.6,68,0.00,,,0.00,WUHU216HW,2013-06-13 11:57:00,
2013-06-13 07:02:00,64.8,54.0,30.13,NNE,23,0.0,3.4,68,0.00,,,0.00,WUHU216HW,2013-06-13 12:02:00,
2013-06-13 07:07:00,64.8,54.0,30.13,NNW,338,2.0,3.4,68,0.00,,,0.00,WUHU216HW,2013-06-13 12:07:00,
2013-06-13 07:12:00,64.8,54.0,30.14,NNW,338,2.7,3.4,68,0.00,,,0.00,WUHU216HW,2013-06-13 12:12:00,
2013-06-13 07:17:00,65.0,54.2,30.14,NNW,338,1.6,2.9,68,0.00,,,0.00,WUHU216HW,2013-06-13 12:17:00,
2013-06-13 07:22:00,65.0,54.2,30.15,SSE,158,1.3,2.9,68,0.00,,,0.00,WUHU216HW,2013-06-13 12:22:00,
2013-06-13 07:27:00,65.0,54.2,30.15,NNE,23,1.1,2.7,68,0.00,,,0.00,WUHU216HW,2013-06-13 12:27:00,
2013-06-13 07:32:00,65.2,54.4,30.15,NNW,338,2.9,3.4,68,0.00,,,0.00,WUHU216HW,2013-06-13 12:32:00,
2013-06-13 07:37:00,65.2,54.4,30.15,NNW,338,3.4,3.6,68,0.00,,,0.00,WUHU216HW,2013-06-13 12:37:00,
2013-06-13 07:42:00,65.2,54.4,30.15,ENE,68,1.1,4.7,68,0.00,,,0.00,WUHU216HW,2013-06-13 12:42:00,
2013-06-13 07:47:00,65.3,54.6,30.15,NW,315,2.2,4.7,68,0.00,,,0.00,WUHU216HW,2013-06-13 12:47:00,
2013-06-13 07:52:00,65.3,54.9,30.15,NW,315,3.4,4.3,69,0.00,,,0.00,WUHU216HW,2013-06-13 12:52:00,
2013-06-13 07:57:00,65.5,55.1,30.15,ENE,68,0.0,4.3,69,0.00,,,0.00,WUHU216HW,2013-06-13 12:57:00,
2013-06-13 08:02:00,65.7,55.3,30.15,NE,45,1.1,3.6,69,0.00,,,0.00,WUHU216HW,2013-06-13 13:02:00,
2013-06-13 08:07:00,65.9,55.0,30.15,ESE,113,3.6,8.3,68,0.00,,,0.00,WUHU216HW,2013-06-13 13:07:00,
2013-06-13 08:12:00,65.9,55.0,30.15,NNW,338,2.9,8.3,68,0.00,,,0.00,WUHU216HW,2013-06-13 13:12:00,
2013-06-13 08:17:00,66.1,55.2,30.15,East,90,2.5,5.1,68,0.00,,,0.00,WUHU216HW,2013-06-13 13:17:00,
2013-06-13 08:22:00,66.4,55.5,30.15,East,90,1.1,5.1,68,0.00,,,0.00,WUHU216HW,2013-06-13 13:22:00,
2013-06-13 08:27:00,66.6,55.7,30.15,NNE,23,0.7,5.1,68,0.00,,,0.00,WUHU216HW,2013-06-13 13:27:00,
2013-06-13 08:32:00,66.8,55.9,30.15,NNW,338,2.2,5.1,68,0.00,,,0.00,WUHU216HW,2013-06-13 13:32:00,
2013-06-13 08:37:00,67.0,56.1,30.15,North,0,1.8,3.8,68,0.00,,,0.00,WUHU216HW,2013-06-13 13:37:00,
2013-06-13 08:42:00,67.1,56.3,30.15,North,0,2.0,5.4,68,0.00,,,0.00,WUHU216HW,2013-06-13 13:42:00,
2013-06-13 08:47:00,67.3,56.4,30.15,NW,315,3.4,5.4,68,0.00,,,0.00,WUHU216HW,2013-06-13 13:47:00,
2013-06-13 08:52:00,67.7,56.7,30.15,NNE,23,4.0,5.4,68,0.00,,,0.00,WUHU216HW,2013-06-13 13:52:00,
2013-06-13 08:57:00,67.7,56.4,30.15,NNE,23,1.8,4.0,67,0.00,,,0.00,WUHU216HW,2013-06-13 13:57:00,
2013-06-13 09:02:00,68.0,57.1,30.15,NNE,23,1.1,4.0,68,0.00,,,0.00,WUHU216HW,2013-06-13 14:02:00,
2013-06-13 09:07:00,68.2,56.8,30.15,NW,315,1.8,3.8,67,0.00,,,0.00,WUHU216HW,2013-06-13 14:07:00,
2013-06-13 09:12:00,68.4,57.0,30.15,North,0,1.8,4.9,67,0.00,,,0.00,WUHU216HW,2013-06-13 14:12:00,
2013-06-13 09:17:00,68.8,57.3,30.15,NE,45,2.5,4.9,67,0.00,,,0.00,WUHU216HW,2013-06-13 14:17:00,
2013-06-13 09:22:00,68.9,57.5,30.15,NNW,338,1.8,4.7,67,0.00,,,0.00,WUHU216HW,2013-06-13 14:22:00,
2013-06-13 09:27:00,69.1,57.7,30.15,North,0,1.8,3.6,67,0.00,,,0.00,WUHU216HW,2013-06-13 14:27:00,
2013-06-13 09:32:00,69.5,58.0,30.15,NE,45,2.2,3.6,67,0.00,,,0.00,WUHU216HW,2013-06-13 14:32:00,
2013-06-13 09:37:00,69.8,58.3,30.15,West,270,0.7,4.5,67,0.00,,,0.00,WUHU216HW,2013-06-13 14:37:00,
2013-06-13 09:42:00,70.2,58.2,30.15,West,270,1.8,4.5,66,0.00,,,0.00,WUHU216HW,2013-06-13 14:42:00,
2013-06-13 09:47:00,70.2,58.2,30.15,North,0,1.1,4.7,66,0.00,,,0.00,WUHU216HW,2013-06-13 14:47:00,
2013-06-13 09:52:00,70.4,58.4,30.15,NE,45,1.3,4.7,66,0.00,,,0.00,WUHU216HW,2013-06-13 14:52:00,
2013-06-13 09:57:00,70.7,58.8,30.15,NNW,338,1.1,4.0,66,0.00,,,0.00,WUHU216HW,2013-06-13 14:57:00,
2013-06-13 10:02:00,71.1,58.7,30.15,South,180,2.5,4.0,65,0.00,,,0.00,WUHU216HW,2013-06-13 15:02:00,
2013-06-13 10:07:00,71.3,59.3,30.15,North,0,3.6,4.0,66,0.00,,,0.00,WUHU216HW,2013-06-13 15:07:00,
2013-06-13 10:12:00,71.6,59.7,30.15,North,0,3.4,4.3,66,0.00,,,0.00,WUHU216HW,2013-06-13 15:12:00,
2013-06-13 10:17:00,71.8,59.4,30.15,North,0,4.5,5.4,65,0.00,,,0.00,WUHU216HW,2013-06-13 15:17:00,
2013-06-13 10:22:00,72.0,59.6,30.15,North,0,2.2,5.4,65,0.00,,,0.00,WUHU216HW,2013-06-13 15:22:00,
2013-06-13 10:27:00,72.4,60.0,30.15,WNW,293,3.4,4.7,65,0.00,,,0.00,WUHU216HW,2013-06-13 15:27:00,
2013-06-13 10:32:00,72.5,59.7,30.16,NE,45,0.7,4.7,64,0.00,,,0.00,WUHU216HW,2013-06-13 15:32:00,
2013-06-13 10:37:00,72.9,60.4,30.16,NNW,338,2.0,6.3,65,0.00,,,0.00,WUHU216HW,2013-06-13 15:37:00,
2013-06-13 10:42:00,73.1,60.1,30.16,SE,135,2.7,6.3,64,0.00,,,0.00,WUHU216HW,2013-06-13 15:42:00,
2013-06-13 10:47:00,73.6,60.7,30.16,NNW,338,1.6,5.4,64,0.00,,,0.00,WUHU216HW,2013-06-13 15:47:00,
2013-06-13 10:52:00,73.8,60.4,30.16,NNW,338,0.7,4.7,63,0.00,,,0.00,WUHU216HW,2013-06-13 15:52:00,
2013-06-13 10:57:00,74.2,60.8,30.16,North,0,1.1,2.7,63,0.00,,,0.00,WUHU216HW,2013-06-13 15:57:00,
2013-06-13 11:02:00,74.3,60.9,30.16,NW,315,1.8,5.4,63,0.00,,,0.00,WUHU216HW,2013-06-13 16:02:00,
2013-06-13 11:07:00,74.7,61.3,30.16,NNW,338,4.0,5.4,63,0.00,,,0.00,WUHU216HW,2013-06-13 16:07:00,
2013-06-13 11:12:00,75.1,61.2,30.16,North,0,1.3,4.3,62,0.00,,,0.00,WUHU216HW,2013-06-13 16:12:00,
2013-06-13 11:17:00,75.2,61.4,30.16,NNW,338,1.6,4.3,62,0.00,,,0.00,WUHU216HW,2013-06-13 16:17:00,
2013-06-13 11:22:00,75.4,61.1,30.15,SE,135,3.4,4.7,61,0.00,,,0.00,WUHU216HW,2013-06-13 16:22:00,
2013-06-13 11:27:00,75.8,61.4,30.16,NNE,23,3.4,6.5,61,0.00,,,0.00,WUHU216HW,2013-06-13 16:27:00,
2013-06-13 11:32:00,76.0,61.1,30.16,North,0,2.5,6.9,60,0.00,,,0.00,WUHU216HW,2013-06-13 16:32:00,
2013-06-13 11:37:00,76.1,60.8,30.16,NE,45,1.6,6.9,59,0.00,,,0.00,WUHU216HW,2013-06-13 16:37:00,
2013-06-13 11:42:00,76.3,60.9,30.16,North,0,3.4,4.0,59,0.00,,,0.00,WUHU216HW,2013-06-13 16:42:00,
2013-06-13 11:47:00,76.7,61.3,30.15,NE,45,1.6,4.0,59,0.00,,,0.00,WUHU216HW,2013-06-13 16:47:00,
2013-06-13 11:52:00,77.0,62.1,30.15,North,0,2.2,4.9,60,0.00,,,0.00,WUHU216HW,2013-06-13 16:52:00,
2013-06-13 11:57:00,77.2,61.7,30.15,ENE,68,1.6,4.9,59,0.00,,,0.00,WUHU216HW,2013-06-13 16:57:00,
2013-06-13 12:02:00,77.4,61.9,30.15,NNW,338,1.1,4.7,59,0.00,,,0.00,WUHU216HW,2013-06-13 17:02:00,
2013-06-13 12:07:00,77.6,62.1,30.15,NE,45,2.0,3.1,59,0.00,,,0.00,WUHU216HW,2013-06-13 17:07:00,
2013-06-13 12:12:00,77.9,62.0,30.15,ESE,113,3.1,5.8,58,0.00,,,0.00,WUHU216HW,2013-06-13 17:12:00,
2013-06-13 12:17:00,78.1,61.7,30.16,NW,315,2.7,5.8,57,0.00,,,0.00,WUHU216HW,2013-06-13 17:17:00,
2013-06-13 12:22:00,78.3,61.8,30.16,ESE,113,2.2,5.4,57,0.00,,,0.00,WUHU216HW,2013-06-13 17:22:00,
2013-06-13 12:27:00,78.5,62.0,30.16,ESE,113,2.2,5.4,57,0.00,,,0.00,WUHU216HW,2013-06-13 17:27:00,
2013-06-13 12:32:00,78.7,62.2,30.15,NW,315,1.8,5.8,57,0.00,,,0.00,WUHU216HW,2013-06-13 17:32:00,
2013-06-13 12:37:00,78.8,61.8,30.15,ESE,113,4.7,5.8,56,0.00,,,0.00,WUHU216HW,2013-06-13 17:37:00,
2013-06-13 12:42:00,79.2,62.1,30.15,SE,135,2.5,5.8,56,0.00,,,0.00,WUHU216HW,2013-06-13 17:42:00,
2013-06-13 12:47:00,79.6,62.5,30.15,East,90,2.0,7.6,56,0.00,,,0.00,WUHU216HW,2013-06-13 17:47:00,
2013-06-13 12:52:00,79.7,62.7,30.15,NNW,338,3.6,7.6,56,0.00,,,0.00,WUHU216HW,2013-06-13 17:52:00,
2013-06-13 12:57:00,80.1,62.5,30.15,ESE,113,2.0,6.7,55,0.00,,,0.00,WUHU216HW,2013-06-13 17:57:00,
2013-06-13 13:02:00,80.1,62.5,30.15,ENE,68,4.7,4.7,55,0.00,,,0.00,WUHU216HW,2013-06-13 18:02:00,
2013-06-13 13:07:00,80.3,62.6,30.14,NNW,338,2.5,5.4,55,0.00,,,0.00,WUHU216HW,2013-06-13 18:07:00,
2013-06-13 13:12:00,80.3,62.1,30.14,North,0,1.6,5.4,54,0.00,,,0.00,WUHU216HW,2013-06-13 18:12:00,
2013-06-13 13:17:00,80.6,62.4,30.14,ESE,113,2.5,4.5,54,0.00,,,0.00,WUHU216HW,2013-06-13 18:17:00,
2013-06-13 13:22:00,81.0,62.7,30.13,ENE,68,1.8,6.5,54,0.00,,,0.00,WUHU216HW,2013-06-13 18:22:00,
2013-06-13 13:27:00,81.2,62.4,30.13,NW,315,3.4,6.5,53,0.00,,,0.00,WUHU216HW,2013-06-13 18:27:00,
2013-06-13 13:32:00,81.4,62.6,30.13,North,0,2.2,4.0,53,0.00,,,0.00,WUHU216HW,2013-06-13 18:32:00,
2013-06-13 13:37:00,81.5,62.6,30.13,NNW,338,1.8,3.6,53,0.00,,,0.00,WUHU216HW,2013-06-13 18:37:00,
2013-06-13 13:42:00,81.7,62.8,30.14,NNW,338,1.8,4.0,53,0.00,,,0.00,WUHU216HW,2013-06-13 18:42:00,
2013-06-13 13:47:00,81.9,62.5,30.13,SE,135,0.9,4.7,52,0.00,,,0.00,WUHU216HW,2013-06-13 18:47:00,
2013-06-13 13:52:00,81.9,63.0,30.13,ESE,113,1.6,4.7,53,0.00,,,0.00,WUHU216HW,2013-06-13 18:52:00,
2013-06-13 13:57:00,82.1,63.2,30.14,ESE,113,1.6,2.9,53,0.00,,,0.00,WUHU216HW,2013-06-13 18:57:00,
2013-06-13 14:02:00,82.4,63.5,30.14,ESE,113,1.1,2.9,53,0.00,,,0.00,WUHU216HW,2013-06-13 19:02:00,
2013-06-13 14:07:00,82.4,63.5,30.13,WSW,248,2.9,2.9,53,0.00,,,0.00,WUHU216HW,2013-06-13 19:07:00,
2013-06-13 14:12:00,82.8,63.8,30.13,ENE,68,2.5,3.6,53,0.00,,,0.00,WUHU216HW,2013-06-13 19:12:00,
2013-06-13 14:17:00,83.0,63.6,30.13,NNW,338,3.1,4.3,52,0.00,,,0.00,WUHU216HW,2013-06-13 19:17:00,
2013-06-13 14:21:00,83.0,63.0,30.13,ESE,113,1.6,4.3,51,0.00,,,0.00,WUHU216HW,2013-06-13 19:21:00,
2013-06-13 14:26:00,83.2,62.6,30.12,North,0,2.2,3.1,50,0.00,,,0.00,WUHU216HW,2013-06-13 19:26:00,
2013-06-13 14:31:00,83.3,63.4,30.12,NNW,338,1.6,4.0,51,0.00,,,0.00,WUHU216HW,2013-06-13 19:31:00,
2013-06-13 14:36:00,83.7,63.7,30.13,NW,315,1.8,4.0,51,0.00,,,0.00,WUHU216HW,2013-06-13 19:36:00,
2013-06-13 14:41:00,83.7,63.7,30.13,North,0,2.5,4.3,51,0.00,,,0.00,WUHU216HW,2013-06-13 19:41:00,
2013-06-13 14:46:00,83.5,63.0,30.13,ENE,68,2.5,4.3,50,0.00,,,0.00,WUHU216HW,2013-06-13 19:46:00,
2013-06-13 14:51:00,83.5,63.0,30.13,NNW,338,1.8,4.0,50,0.00,,,0.00,WUHU216HW,2013-06-13 19:51:00,
2013-06-13 14:56:00,83.5,63.0,30.13,SSW,203,1.1,3.4,50,0.00,,,0.00,WUHU216HW,2013-06-13 19:56:00,
2013-06-13 15:01:00,83.9,63.4,30.13,SSE,158,1.8,2.5,50,0.00,,,0.00,WUHU216HW,2013-06-13 20:01:00,
2013-06-13 15:06:00,84.1,63.5,30.13,WSW,248,1.3,3.8,50,0.00,,,0.00,WUHU216HW,2013-06-13 20:06:00,
2013-06-13 15:11:00,84.2,63.7,30.13,NW,315,1.1,3.8,50,0.00,,,0.00,WUHU216HW,2013-06-13 20:11:00,
2013-06-13 15:16:00,84.1,64.1,30.13,SE,135,1.8,2.0,51,0.00,,,0.00,WUHU216HW,2013-06-13 20:16:00,
2013-06-13 15:21:00,84.2,64.3,30.13,NNE,23,1.1,2.0,51,0.00,,,0.00,WUHU216HW,2013-06-13 20:21:00,
2013-06-13 15:26:00,84.6,64.5,30.13,NNW,338,2.5,5.4,51,0.00,,,0.00,WUHU216HW,2013-06-13 20:26:00,
2013-06-13 15:31:00,84.6,64.1,30.13,WNW,293,1.6,5.4,50,0.00,,,0.00,WUHU216HW,2013-06-13 20:31:00,
2013-06-13 15:36:00,84.6,64.1,30.13,NW,315,0.2,4.0,50,0.00,,,0.00,WUHU216HW,2013-06-13 20:36:00,
2013-06-13 15:41:00,84.8,63.5,30.13,WSW,248,0.4,3.4,49,0.00,,,0.00,WUHU216HW,2013-06-13 20:41:00,
2013-06-13 15:46:00,85.0,63.7,30.13,NNW,338,1.8,4.7,49,0.00,,,0.00,WUHU216HW,2013-06-13 20:46:00,
2013-06-13 15:51:00,85.0,63.7,30.13,SE,135,2.7,4.7,49,0.00,,,0.00,WUHU216HW,2013-06-13 20:51:00,
2013-06-13 15:56:00,84.8,63.5,30.13,North,0,1.1,2.9,49,0.00,,,0.00,WUHU216HW,2013-06-13 20:56:00,
2013-06-13 16:01:00,84.6,63.5,30.12,WSW,248,1.3,2.7,49,0.00,,,0.00,WUHU216HW,2013-06-13 21:01:00,
2013-06-13 16:06:00,84.6,63.5,30.12,SW,225,0.4,2.2,49,0.00,,,0.00,WUHU216HW,2013-06-13 21:06:00,
2013-06-13 16:11:00,84.6,64.1,30.12,ENE,68,0.9,2.2,50,0.00,,,0.00,WUHU216HW,2013-06-13 21:11:00,
2013-06-13 16:16:00,84.6,64.1,30.12,North,0,0.0,2.5,50,0.00,,,0.00,WUHU216HW,2013-06-13 21:16:00,
2013-06-13 16:21:00,84.6,64.1,30.12,NE,45,0.4,3.6,50,0.00,,,0.00,WUHU216HW,2013-06-13 21:21:00,
2013-06-13 16:26:00,84.6,64.1,30.12,ENE,68,0.0,3.6,50,0.00,,,0.00,WUHU216HW,2013-06-13 21:26:00,
2013-06-13 16:31:00,84.4,63.3,30.12,East,90,2.2,2.2,49,0.00,,,0.00,WUHU216HW,2013-06-13 21:31:00,
2013-06-13 16:36:00,84.1,62.9,30.12,NNW,338,0.4,4.7,49,0.00,,,0.00,WUHU216HW,2013-06-13 21:36:00,
2013-06-13 16:41:00,83.9,63.4,30.11,ESE,113,0.4,4.7,50,0.00,,,0.00,WUHU216HW,2013-06-13 21:41:00,
2013-06-13 16:46:00,83.7,63.2,30.11,ENE,68,1.1,3.4,50,0.00,,,0.00,WUHU216HW,2013-06-13 21:46:00,
2013-06-13 16:51:00,83.5,63.6,30.11,ESE,113,2.9,3.4,51,0.00,,,0.00,WUHU216HW,2013-06-13 21:51:00,
2013-06-13 16:56:00,83.5,63.6,30.11,ENE,68,2.0,4.3,51,0.00,,,0.00,WUHU216HW,2013-06-13 21:56:00,
2013-06-13 17:01:00,83.3,63.4,30.11,ENE,68,1.8,4.3,51,0.00,,,0.00,WUHU216HW,2013-06-13 22:01:00,
2013-06-13 17:06:00,83.2,63.2,30.11,East,90,1.6,2.0,51,0.00,,,0.00,WUHU216HW,2013-06-13 22:06:00,
2013-06-13 17:11:00,83.0,63.0,30.12,NE,45,1.8,3.4,51,0.00,,,0.00,WUHU216HW,2013-06-13 22:11:00,
2013-06-13 17:16:00,82.8,62.8,30.12,NNE,23,0.9,3.4,51,0.00,,,0.00,WUHU216HW,2013-06-13 22:16:00,
2013-06-13 17:21:00,82.8,63.4,30.13,ESE,113,1.8,2.5,52,0.00,,,0.00,WUHU216HW,2013-06-13 22:21:00,
2013-06-13 17:26:00,82.8,63.4,30.14,NNW,338,0.9,2.5,52,0.00,,,0.00,WUHU216HW,2013-06-13 22:26:00,
2013-06-13 17:31:00,82.6,63.2,30.14,NNW,338,1.1,2.5,52,0.00,,,0.00,WUHU216HW,2013-06-13 22:31:00,
2013-06-13 17:36:00,82.4,63.0,30.14,NNW,338,0.7,3.4,52,0.00,,,0.00,WUHU216HW,2013-06-13 22:36:00,
2013-06-13 17:41:00,82.3,62.8,30.14,ENE,68,0.0,3.4,52,0.00,,,0.00,WUHU216HW,2013-06-13 22:41:00,
2013-06-13 17:46:00,82.3,62.8,30.13,NNE,23,2.5,2.5,52,0.00,,,0.00,WUHU216HW,2013-06-13 22:46:00,
2013-06-13 17:51:00,82.1,63.2,30.13,North,0,1.8,3.4,53,0.00,,,0.00,WUHU216HW,2013-06-13 22:51:00,
2013-06-13 17:56:00,81.9,62.5,30.13,SE,135,0.7,3.4,52,0.00,,,0.00,WUHU216HW,2013-06-13 22:56:00,
2013-06-13 18:01:00,81.9,63.0,30.13,NE,45,0.2,4.3,53,0.00,,,0.00,WUHU216HW,2013-06-13 23:01:00,
2013-06-13 18:06:00,81.7,62.3,30.12,North,0,2.2,4.3,52,0.00,,,0.00,WUHU216HW,2013-06-13 23:06:00,
2013-06-13 18:11:00,81.7,62.3,30.12,ESE,113,1.3,3.4,52,0.00,,,0.00,WUHU216HW,2013-06-13 23:11:00,
2013-06-13 18:16:00,81.5,62.2,30.12,East,90,0.4,3.6,52,0.00,,,0.00,WUHU216HW,2013-06-13 23:16:00,
2013-06-13 18:21:00,81.4,62.6,30.11,South,180,1.1,3.6,53,0.00,,,0.00,WUHU216HW,2013-06-13 23:21:00,
2013-06-13 18:26:00,81.2,62.4,30.10,East,90,2.7,6.9,53,0.00,,,0.00,WUHU216HW,2013-06-13 23:26:00,
2013-06-13 18:31:00,81.0,62.2,30.09,East,90,1.8,6.9,53,0.00,,,0.00,WUHU216HW,2013-06-13 23:31:00,
2013-06-13 18:36:00,80.8,62.6,30.09,East,90,0.9,5.6,54,0.00,,,0.00,WUHU216HW,2013-06-13 23:36:00,
2013-06-13 18:41:00,80.6,62.4,30.10,NW,315,0.4,4.7,54,0.00,,,0.00,WUHU216HW,2013-06-13 23:41:00,
2013-06-13 18:46:00,80.6,62.4,30.10,NE,45,1.3,2.9,54,0.00,,,0.00,WUHU216HW,2013-06-13 23:46:00,
2013-06-13 18:51:00,80.5,62.7,30.10,North,0,1.1,2.9,55,0.00,,,0.00,WUHU216HW,2013-06-13 23:51:00,
2013-06-13 18:56:00,80.3,62.6,30.11,NNE,23,0.7,1.3,55,0.00,,,0.00,WUHU216HW,2013-06-13 23:56:00,
2013-06-13 19:01:00,80.1,62.5,30.11,SE,135,0.2,2.5,55,0.00,,,0.00,WUHU216HW,2013-06-14 00:01:00,
2013-06-13 19:06:00,79.9,62.3,30.11,NE,45,1.8,2.5,55,0.00,,,0.00,WUHU216HW,2013-06-14 00:06:00,
2013-06-13 19:11:00,79.9,62.3,30.11,North,0,0.9,2.5,55,0.00,,,0.00,WUHU216HW,2013-06-14 00:11:00,
2013-06-13 19:16:00,79.9,62.3,30.10,NNE,23,0.0,2.5,55,0.00,,,0.00,WUHU216HW,2013-06-14 00:16:00,
2013-06-13 19:21:00,79.7,62.7,30.10,ESE,113,2.9,2.9,56,0.00,,,0.00,WUHU216HW,2013-06-14 00:21:00,
2013-06-13 19:26:00,79.7,62.7,30.10,SE,135,0.7,2.9,56,0.00,,,0.00,WUHU216HW,2013-06-14 00:26:00,
2013-06-13 19:31:00,79.6,62.5,30.10,ENE,68,2.5,2.5,56,0.00,,,0.00,WUHU216HW,2013-06-14 00:31:00,
2013-06-13 19:36:00,79.6,62.5,30.10,East,90,0.4,4.0,56,0.00,,,0.00,WUHU216HW,2013-06-14 00:36:00,
2013-06-13 19:41:00,79.6,63.0,30.10,ESE,113,0.2,4.0,57,0.00,,,0.00,WUHU216HW,2013-06-14 00:41:00,
2013-06-13 19:46:00,79.6,63.0,30.09,SE,135,0.4,2.5,57,0.00,,,0.00,WUHU216HW,2013-06-14 00:46:00,
2013-06-13 19:51:00,79.4,62.8,30.09,ESE,113,0.7,2.5,57,0.00,,,0.00,WUHU216HW,2013-06-14 00:51:00,
2013-06-13 19:56:00,79.2,62.6,30.09,NE,45,0.0,2.5,57,0.00,,,0.00,WUHU216HW,2013-06-14 00:56:00,
2013-06-13 20:01:00,79.2,63.2,30.09,East,90,0.2,1.6,58,0.00,,,0.00,WUHU216HW,2013-06-14 01:01:00,
2013-06-13 20:06:00,78.8,62.8,30.09,East,90,0.0,1.3,58,0.00,,,0.00,WUHU216HW,2013-06-14 01:06:00,
2013-06-13 20:11:00,78.7,63.2,30.08,ENE,68,0.4,0.4,59,0.00,,,0.00,WUHU216HW,2013-06-14 01:11:00,
2013-06-13 20:16:00,78.5,63.0,30.07,ESE,113,0.0,1.8,59,0.00,,,0.00,WUHU216HW,2013-06-14 01:16:00,
2013-06-13 20:21:00,78.3,62.8,30.08,ESE,113,0.0,3.4,59,0.00,,,0.00,WUHU216HW,2013-06-14 01:21:00,
2013-06-13 20:26:00,78.1,62.6,30.07,SE,135,0.2,3.4,59,0.00,,,0.00,WUHU216HW,2013-06-14 01:26:00,
2013-06-13 20:31:00,78.1,62.6,30.07,ESE,113,0.7,1.1,59,0.00,,,0.00,WUHU216HW,2013-06-14 01:31:00,
2013-06-13 20:36:00,77.9,62.5,30.07,East,90,0.9,1.6,59,0.00,,,0.00,WUHU216HW,2013-06-14 01:36:00,
2013-06-13 20:41:00,77.8,62.8,30.07,East,90,1.3,1.6,60,0.00,,,0.00,WUHU216HW,2013-06-14 01:41:00,
2013-06-13 20:46:00,77.6,62.6,30.07,East,90,0.4,1.8,60,0.00,,,0.00,WUHU216HW,2013-06-14 01:46:00,
2013-06-13 20:51:00,77.4,62.5,30.07,ENE,68,0.0,1.8,60,0.00,,,0.00,WUHU216HW,2013-06-14 01:51:00,
2013-06-13 20:56:00,77.2,62.3,30.07,ENE,68,0.0,1.6,60,0.00,,,0.00,WUHU216HW,2013-06-14 01:56:00,
2013-06-13 21:01:00,77.0,62.1,30.07,ENE,68,0.0,0.2,60,0.00,,,0.00,WUHU216HW,2013-06-14 02:01:00,
2013-06-13 21:06:00,76.7,62.2,30.07,ENE,68,0.0,0.0,61,0.00,,,0.00,WUHU216HW,2013-06-14 02:06:00,
2013-06-13 21:11:00,76.5,62.1,30.07,ENE,68,0.0,0.0,61,0.00,,,0.00,WUHU216HW,2013-06-14 02:11:00,
2013-06-13 21:16:00,76.3,61.9,30.07,NE,45,0.0,0.0,61,0.00,,,0.00,WUHU216HW,2013-06-14 02:16:00,
2013-06-13 21:21:00,76.0,61.6,30.07,NE,45,0.0,0.0,61,0.00,,,0.00,WUHU216HW,2013-06-14 02:21:00,
2013-06-13 21:26:00,76.0,62.0,30.06,NE,45,0.0,0.0,62,0.00,,,0.00,WUHU216HW,2013-06-14 02:26:00,
2013-06-13 21:31:00,75.6,61.7,30.06,SSW,203,0.0,1.1,62,0.00,,,0.00,WUHU216HW,2013-06-14 02:31:00,
2013-06-13 21:36:00,75.4,61.9,30.06,SSW,203,0.0,1.1,63,0.00,,,0.00,WUHU216HW,2013-06-14 02:36:00,
2013-06-13 21:41:00,75.2,61.7,30.05,SSW,203,0.0,0.7,63,0.00,,,0.00,WUHU216HW,2013-06-14 02:41:00,
2013-06-13 21:46:00,75.1,61.6,30.05,SSW,203,0.0,0.9,63,0.00,,,0.00,WUHU216HW,2013-06-14 02:46:00,
2013-06-13 21:51:00,75.1,62.0,30.06,SSW,203,0.0,0.9,64,0.00,,,0.00,WUHU216HW,2013-06-14 02:51:00,
2013-06-13 21:56:00,74.9,61.8,30.06,South,180,0.0,0.4,64,0.00,,,0.00,WUHU216HW,2013-06-14 02:56:00,
2013-06-13 22:01:00,74.7,61.7,30.06,South,180,0.0,0.4,64,0.00,,,0.00,WUHU216HW,2013-06-14 03:01:00,
2013-06-13 22:06:00,74.5,61.6,30.06,ENE,68,0.0,0.4,64,0.00,,,0.00,WUHU216HW,2013-06-14 03:06:00,
2013-06-13 22:11:00,74.3,61.4,30.06,ENE,68,0.0,0.4,64,0.00,,,0.00,WUHU216HW,2013-06-14 03:11:00,
2013-06-13 22:16:00,74.2,61.7,30.07,ENE,68,0.0,0.0,65,0.00,,,0.00,WUHU216HW,2013-06-14 03:16:00,
2013-06-13 22:21:00,74.0,61.5,30.06,East,90,0.0,0.9,65,0.00,,,0.00,WUHU216HW,2013-06-14 03:21:00,
2013-06-13 22:26:00,73.8,61.3,30.06,ENE,68,0.0,0.9,65,0.00,,,0.00,WUHU216HW,2013-06-14 03:26:00,
2013-06-13 22:31:00,73.8,61.8,30.07,NE,45,0.0,1.1,66,0.00,,,0.00,WUHU216HW,2013-06-14 03:31:00,
2013-06-13 22:36:00,73.6,61.6,30.07,NE,45,0.0,1.1,66,0.00,,,0.00,WUHU216HW,2013-06-14 03:36:00,
2013-06-13 22:41:00,73.4,61.8,30.07,NE,45,0.0,0.7,67,0.00,,,0.00,WUHU216HW,2013-06-14 03:41:00,
2013-06-13 22:46:00,73.3,61.7,30.07,East,90,0.0,0.0,67,0.00,,,0.00,WUHU216HW,2013-06-14 03:46:00,
2013-06-13 22:51:00,73.1,61.5,30.07,East,90,0.0,0.0,67,0.00,,,0.00,WUHU216HW,2013-06-14 03:51:00,
2013-06-13 22:56:00,73.1,61.5,30.08,East,90,0.0,0.0,67,0.00,,,0.00,WUHU216HW,2013-06-14 03:56:00,
2013-06-13 23:01:00,72.9,61.3,30.08,East,90,0.0,0.0,67,0.00,,,0.00,WUHU216HW,2013-06-14 04:01:00,
2013-06-13 23:06:00,72.7,61.6,30.08,East,90,0.0,0.0,68,0.00,,,0.00,WUHU216HW,2013-06-14 04:06:00,
2013-06-13 23:11:00,72.5,61.4,30.08,East,90,0.0,0.0,68,0.00,,,0.00,WUHU216HW,2013-06-14 04:11:00,
2013-06-13 23:16:00,72.4,61.2,30.08,East,90,0.0,0.0,68,0.00,,,0.00,WUHU216HW,2013-06-14 04:16:00,
2013-06-13 23:21:00,72.2,61.5,30.08,East,90,0.0,0.0,69,0.00,,,0.00,WUHU216HW,2013-06-14 04:21:00,
2013-06-13 23:26:00,72.0,61.3,30.08,East,90,0.0,0.0,69,0.00,,,0.00,WUHU216HW,2013-06-14 04:26:00,
2013-06-13 23:31:00,71.8,61.1,30.08,East,90,0.0,0.0,69,0.00,,,0.00,WUHU216HW,2013-06-14 04:31:00,
2013-06-13 23:36:00,71.6,60.9,30.08,East,90,0.0,0.0,69,0.00,,,0.00,WUHU216HW,2013-06-14 04:36:00,
2013-06-13 23:41:00,71.5,60.8,30.08,East,90,0.0,0.0,69,0.00,,,0.00,WUHU216HW,2013-06-14 04:41:00,
2013-06-13 23:46:00,71.3,61.0,30.08,East,90,0.0,0.0,70,0.00,,,0.00,WUHU216HW,2013-06-14 04:46:00,
2013-06-13 23:51:00,71.1,60.8,30.09,East,90,0.0,0.0,70,0.00,,,0.00,WUHU216HW,2013-06-14 04:51:00,
2013-06-13 23:56:00,71.1,60.8,30.09,East,90,0.0,0.0,70,0.00,,,0.00,WUHU216HW,2013-06-14 04:56:00,